Voltar ao catálogo

STARLINK-31992

AtivoComunicaçõesVLEO
NORAD 60023·PAYLOAD·🇺🇸 United States

Lançado Jun 8, 2024 de Cape Canaveral Space Force Station

Loading…

Próximas Passagens (próximas 24 horas)

TLE

AtualizadoSource: CelesTrak SupGP

Época: Sep 14, 2026, 14:56 UTC

1 60023C 24111H   26257.62270833  .00000725  00000+0  21443-4 0  2571
2 60023  53.1568 276.8644 0001461  89.7031  24.5728 15.34364636    18

Acompanhe STARLINK-31992 em tempo real com AllMySat

Download on the App Store